STARLINK-37220, 68398

Orbit data source: Space-Track

STARLINK-37220, 68398 is a payload satellite owned by SpaceX/Seattle (US) in SSO that was launched on Thu, 26 Mar 2026 UTC via an FALCON 9 launch vehicle from the Air Force Western Test Range (AFWTR). Payload-class satellites include a variety of spacecraft equipped with specific instruments for various scientific and technological missions. These include communications satellites like Starlink; space stations such as the ISS; scientific satellites like the Hubble; Earth observation satellites from companies like Planet Labs, Umbra, and HawkEye 360; GPS; miniature CubeSats for education and research; and military/defense satellites.

Loading next visibility...
Identifier
68398, 2026-063U
Orbit
SSO
Country
Flag of USUS
Related business
Manufacturer
SpaceX/Seattle
Mission
Operational spacecraft
Bus & Motor
STARLINK V2MO, Unknown motor
Mass
575 kg wet, ~530 kg dry
Launch date (UTC)
2026-03-26 (3 months ago)
Launch vehicle
FALCON 9
Launch site
Air Force Western Test Range (AFWTR)
Object type
Payload
Rocket body
Debris
Shape & HBR
Unknown shape, 17.7 m
Radar Cross Section
Large (>1 m²)

Expand to show TLE details & history
Last TLE update: 6 hours ago

TLE from 6 hours ago
0 STARLINK-37220
1 68398U 26063U   26165.91837057  .00019331  00000-0  59965-3 0  9995
2 68398  97.2848 308.1575 0001055  94.5777 265.5587 15.33440846 12798
Epoch: 2026-06-14T22:02Z
TLE epoch observation values (Epoch: 2026-06-14T22:02:27.217Z)
Latitude
0.00007°
Longitude
74.33187°
Altitude
468.724 km
Speed
7.632 km/s
True Right ascension
20h 32m 37s
True Declination
0° 00' 00"
Sunlit
Object was in full shadow at epoch
Visualization orbit readout
Latitude
Unknown
Longitude
Unknown
Altitude
Unknown
Speed
Unknown
Apparent Right ascension
Unknown
Apparent Declination
Unknown
Sunlit
N/A
Visualization observer readout
Local Sidereal Time
14:20:25
Azimuth
Unknown
Elevation
Unknown
Doppler factor
Unknown
Orbital elements
Apogee altitude
463.22 km
Perigee altitude
461.777 km
Semi-major axis
6,840.635 km
Eccentricity
0.00011
Inclination
97.2848°
RAAN
308.1575°
Arg. of periapsis
94.5777°
True anomaly
265.54665°
Mean anomaly
265.5587°
Eccentric anomaly
265.55267°
Mean motion
3.83618 °/min
Orbital period
93.84 mins
BSTAR
0.00059965
Loading maneuver chart data...
Computing Atmospheric mass density...
Loading historical data...
Loading historical data...
Loading historical data...
Loading historical data...
Loading historical data...
Loading historical data...
Loading historical data...

Documentation

Showing up to 5 results
|